TimeEDT,TemperatureF,Dew PointF,Humidity,Sea Level PressureIn,VisibilityMPH,Wind Direction,Wind SpeedMPH,Gust SpeedMPH,PrecipitationIn,Events,Conditions,WindDirDegrees,DateUTC
12:15 AM,55.4,53.6,94,30.25,6.0,Calm,Calm,-,N/A,,Clear,0,2013-09-28 04:15:00
12:35 AM,53.6,51.8,94,30.25,10.0,Calm,Calm,-,N/A,,Partly Cloudy,0,2013-09-28 04:35:00
12:55 AM,53.6,51.8,94,30.25,10.0,Calm,Calm,-,N/A,,Partly Cloudy,0,2013-09-28 04:55:00
1:15 AM,51.8,51.8,100,30.25,4.0,Calm,Calm,-,N/A,,Scattered Clouds,0,2013-09-28 05:15:00
1:35 AM,53.6,53.6,100,30.26,10.0,Calm,Calm,-,N/A,,Overcast,0,2013-09-28 05:35:00
1:55 AM,53.6,53.6,100,30.26,10.0,Calm,Calm,-,N/A,,Overcast,0,2013-09-28 05:55:00
2:15 AM,53.6,53.6,100,30.26,10.0,Calm,Calm,-,N/A,,Overcast,0,2013-09-28 06:15:00
2:35 AM,53.6,53.6,100,30.25,10.0,Calm,Calm,-,N/A,,Overcast,0,2013-09-28 06:35:00
2:55 AM,55.4,53.6,94,30.25,10.0,Calm,Calm,-,N/A,,Overcast,0,2013-09-28 06:55:00
3:15 AM,55.4,55.4,100,30.25,10.0,Calm,Calm,-,N/A,,Overcast,0,2013-09-28 07:15:00
3:35 AM,55.4,55.4,100,30.25,10.0,Calm,Calm,-,N/A,,Overcast,0,2013-09-28 07:35:00
3:55 AM,57.2,57.2,100,30.25,10.0,Calm,Calm,-,N/A,,Overcast,0,2013-09-28 07:55:00
4:15 AM,55.4,55.4,100,30.25,10.0,Calm,Calm,-,N/A,,Overcast,0,2013-09-28 08:15:00
4:35 AM,55.4,53.6,94,30.25,10.0,Calm,Calm,-,N/A,,Overcast,0,2013-09-28 08:35:00
4:55 AM,55.4,55.4,100,30.26,10.0,Calm,Calm,-,N/A,,Overcast,0,2013-09-28 08:55:00
5:15 AM,55.4,55.4,100,30.26,10.0,NNW,3.5,-,N/A,,Overcast,340,2013-09-28 09:15:00
5:35 AM,53.6,53.6,100,30.26,10.0,Calm,Calm,-,N/A,,Overcast,0,2013-09-28 09:35:00
5:55 AM,55.4,55.4,100,30.26,10.0,Calm,Calm,-,N/A,,Overcast,0,2013-09-28 09:55:00
6:15 AM,55.4,55.4,100,30.27,10.0,Calm,Calm,-,N/A,,Overcast,0,2013-09-28 10:15:00
6:55 AM,57.2,55.4,94,30.28,10.0,Calm,Calm,-,N/A,,Overcast,0,2013-09-28 10:55:00
8:15 AM,59.0,57.2,94,30.29,10.0,NNW,5.8,-,N/A,,Overcast,330,2013-09-28 12:15:00
8:35 AM,60.8,57.2,88,30.30,10.0,North,5.8,-,N/A,,Overcast,10,2013-09-28 12:35:00
8:55 AM,62.6,57.2,82,30.31,10.0,North,5.8,-,N/A,,Mostly Cloudy,360,2013-09-28 12:55:00
9:15 AM,62.6,57.2,82,30.31,10.0,NNE,5.8,-,N/A,,Mostly Cloudy,20,2013-09-28 13:15:00
9:35 AM,64.4,55.4,73,30.31,10.0,North,6.9,-,N/A,,Clear,10,2013-09-28 13:35:00
9:45 AM,64.4,55.4,73,30.32,10.0,NNE,5.8,-,N/A,,Partly Cloudy,30,2013-09-28 13:45:00
9:55 AM,64.4,55.4,73,30.31,10.0,NNE,5.8,-,N/A,,Scattered Clouds,20,2013-09-28 13:55:00
10:15 AM,64.4,55.4,73,30.31,10.0,NNE,6.9,-,N/A,,Mostly Cloudy,20,2013-09-28 14:15:00
10:35 AM,64.4,55.4,73,30.31,10.0,NNE,5.8,-,N/A,,Mostly Cloudy,30,2013-09-28 14:35:00
10:45 AM,64.4,55.4,73,30.21,10.0,NE,6.9,-,N/A,,Mostly Cloudy,40,2013-09-28 14:45:00
10:55 AM,66.2,53.6,64,30.32,10.0,East,8.1,-,N/A,,Overcast,100,2013-09-28 14:55:00
11:15 AM,66.2,53.6,64,30.31,10.0,ENE,5.8,-,N/A,,Mostly Cloudy,70,2013-09-28 15:15:00
11:35 AM,66.2,51.8,60,30.31,10.0,East,6.9,-,N/A,,Overcast,100,2013-09-28 15:35:00
11:45 AM,66.2,53.6,64,30.31,10.0,ENE,4.6,-,N/A,,Overcast,60,2013-09-28 15:45:00
11:55 AM,66.2,53.6,64,30.31,10.0,ENE,5.8,-,N/A,,Overcast,60,2013-09-28 15:55:00
12:15 PM,68.0,53.6,60,30.31,10.0,SE,4.6,-,N/A,,Overcast,130,2013-09-28 16:15:00
12:35 PM,66.2,53.6,64,30.31,10.0,ENE,3.5,-,N/A,,Overcast,70,2013-09-28 16:35:00
12:55 PM,66.2,53.6,64,30.30,10.0,NE,5.8,-,N/A,,Overcast,50,2013-09-28 16:55:00
1:15 PM,66.2,53.6,64,30.30,10.0,East,6.9,-,N/A,,Overcast,100,2013-09-28 17:15:00
1:35 PM,66.2,53.6,64,30.29,10.0,East,4.6,-,N/A,,Overcast,80,2013-09-28 17:35:00
1:55 PM,66.2,53.6,64,30.28,10.0,SE,4.6,-,N/A,,Overcast,130,2013-09-28 17:55:00
2:15 PM,66.2,53.6,64,30.28,10.0,ESE,4.6,-,N/A,,Overcast,120,2013-09-28 18:15:00
2:35 PM,66.2,53.6,64,30.27,10.0,SE,4.6,-,N/A,,Overcast,130,2013-09-28 18:35:00
2:55 PM,68.0,53.6,60,30.27,10.0,Calm,Calm,-,N/A,,Overcast,0,2013-09-28 18:55:00
3:15 PM,68.0,53.6,60,30.27,10.0,Calm,Calm,-,N/A,,Overcast,0,2013-09-28 19:15:00
3:35 PM,68.0,53.6,60,30.26,10.0,NNE,3.5,-,N/A,,Overcast,30,2013-09-28 19:35:00
3:50 PM,66.2,53.6,64,30.26,10.0,Calm,Calm,-,N/A,,Overcast,0,2013-09-28 19:50:00
3:55 PM,66.2,53.6,64,30.26,10.0,Calm,Calm,-,N/A,,Overcast,0,2013-09-28 19:55:00
4:15 PM,68.0,53.6,60,30.26,10.0,Calm,Calm,-,N/A,,Overcast,0,2013-09-28 20:15:00
4:35 PM,68.0,53.6,60,30.25,10.0,Calm,Calm,-,N/A,,Unknown,0,2013-09-28 20:35:00
4:55 PM,68.0,53.6,60,30.25,10.0,NNW,3.5,-,N/A,,Overcast,340,2013-09-28 20:55:00
5:15 PM,66.2,53.6,64,30.25,10.0,North,6.9,-,N/A,,Overcast,350,2013-09-28 21:15:00
5:35 PM,66.2,53.6,64,30.25,10.0,NNW,4.6,-,N/A,,Overcast,340,2013-09-28 21:35:00
5:55 PM,66.2,53.6,64,30.25,10.0,North,5.8,-,N/A,,Overcast,350,2013-09-28 21:55:00
6:15 PM,66.2,53.6,64,30.25,10.0,Calm,Calm,-,N/A,,Overcast,0,2013-09-28 22:15:00
6:35 PM,64.4,53.6,68,30.25,10.0,NNW,3.5,-,N/A,,Mostly Cloudy,340,2013-09-28 22:35:00
6:55 PM,62.6,55.4,77,30.25,10.0,Calm,Calm,-,N/A,,Mostly Cloudy,0,2013-09-28 22:55:00
7:15 PM,62.6,55.4,77,30.25,10.0,Calm,Calm,-,N/A,,Overcast,0,2013-09-28 23:15:00
7:35 PM,62.6,57.2,82,30.24,10.0,Calm,Calm,-,N/A,,Overcast,0,2013-09-28 23:35:00
7:55 PM,60.8,55.4,82,30.25,10.0,Calm,Calm,-,N/A,,Scattered Clouds,0,2013-09-28 23:55:00
8:15 PM,57.2,55.4,94,30.24,10.0,Calm,Calm,-,N/A,,Clear,0,2013-09-29 00:15:00
8:35 PM,55.4,55.4,100,30.25,10.0,Calm,Calm,-,N/A,,Clear,0,2013-09-29 00:35:00
8:55 PM,55.4,53.6,94,30.25,10.0,Calm,Calm,-,N/A,,Clear,0,2013-09-29 00:55:00
9:15 PM,53.6,51.8,94,30.25,10.0,Calm,Calm,-,N/A,,Clear,0,2013-09-29 01:15:00
9:35 PM,53.6,51.8,94,30.25,10.0,Calm,Calm,-,N/A,,Clear,0,2013-09-29 01:35:00
9:55 PM,53.6,53.6,100,30.25,10.0,Calm,Calm,-,N/A,,Clear,0,2013-09-29 01:55:00
10:15 PM,51.8,51.8,100,30.25,10.0,Calm,Calm,-,N/A,,Clear,0,2013-09-29 02:15:00
10:35 PM,51.8,51.8,100,30.25,10.0,Calm,Calm,-,N/A,,Clear,0,2013-09-29 02:35:00
10:55 PM,51.8,51.8,100,30.24,10.0,Calm,Calm,-,N/A,,Clear,0,2013-09-29 02:55:00
11:15 PM,50.0,48.2,94,30.23,2.5,Calm,Calm,-,N/A,,Clear,0,2013-09-29 03:15:00
11:35 PM,50.0,50.0,100,30.23,10.0,Calm,Calm,-,N/A,,Clear,0,2013-09-29 03:35:00
11:55 PM,50.0,48.2,94,30.23,9.0,Calm,Calm,-,N/A,,Clear,0,2013-09-29 03:55:00